Regional Weather Roundup
Issued by NWS

Home | Current Version | Previous Version | Text Only | Print | Product List | Glossary Off
Versions: 1 2 3 4 5 6 7 8 9 10 11 12 13 14 15 16 17 18 19 20 21 22 23 24 25 26 27 28 29 30 31 32 33 34 35 36 37 38 39 40 41 42 43 44 45 46 47 48 49 50

000
ASUS45 KCYS 210010
RWRWY

WYOMING REGIONAL WEATHER ROUNDUP
NATIONAL WEATHER SERVICE CHEYENNE WY
600 PM MDT WED AUG 20 2014

NOTE:  "FAIR" INDICATES FEW OR NO CLOUDS BELOW 12,000 FEET
WITH NO SIGNIFICANT WEATHER AND/OR OBSTRUCTIONS TO VISIBILITY.

WYZ001-210100-
YELLOWSTONE NATIONAL PARK

CITY           SKY/WX    TMP DP  RH WIND       PRES   REMARKS
LK YELLOWSTONE   N/A     52  41  66 NW13G24   30.13R
6HR MIN TEMP:  48; 6HR MAX TEMP:  62; 6HR PCP:  0.02;

W YELLOWSTONE  NOT AVBL

$$
WYZ002>013-054>058-071-098>099-210100-
NORTHERN WYOMING

CITY           SKY/WX    TMP DP  RH WIND       PRES   REMARKS
JACKSON        MOSUNNY   57  46  67 W7        30.05S
CODY           MOSUNNY   73  45  35 SE9       29.91F
GREYBULL       PTSUNNY   83  41  22 VRB5      29.83S
6HR MIN TEMP:  77; 6HR MAX TEMP:  85;

WORLAND        PTSUNNY   80  45  28 NE7       29.85F
6HR MIN TEMP:  77; 6HR MAX TEMP:  83;

SHERIDAN       MOSUNNY   77  47  34 W8        29.86S
6HR MIN TEMP:  74; 6HR MAX TEMP:  82;

BUFFALO          N/A     73  45  36 N10       29.93S
6HR MIN TEMP:  69; 6HR MAX TEMP:  78;

GILLETTE       SUNNY     80  45  28 NW7       29.87S
6HR MIN TEMP:  78; 6HR MAX TEMP:  83;

HULETT         FAIR      79  46  31 MISG      29.86
NEWCASTLE      FAIR      82  41  23 N10       29.83

$$
WYZ014>020-022>026-101>103-210100-
CENTRAL WYOMING

CITY           SKY/WX    TMP DP  RH WIND       PRES   REMARKS
BIG PINEY      PTSUNNY   65  42  43 N12G23    30.11R
6HR MIN TEMP:  56; 6HR MAX TEMP:  73; 6HR PCP:  0.03;

PINEDALE       CLOUDY    63  37  39 NW15      30.11S
DUBOIS         FAIR      61  32  33 W20G32    30.07S
LANDER         CLOUDY    66  45  46 SE10      29.96F
6HR MIN TEMP:  64; 6HR MAX TEMP:  82; 6HR PCP: TRACE;

RIVERTON       CLOUDY    76  37  24 W14       29.94R
6HR MIN TEMP:  75; 6HR MAX TEMP:  83;

CASPER         CLOUDY    79  37  22 SW21G28   29.92R
6HR MIN TEMP:  77; 6HR MAX TEMP:  86;

DOUGLAS        PTSUNNY   82  43  25 NW7       29.89R
6HR MIN TEMP:  79; 6HR MAX TEMP:  86;


$$
WYZ021-027>030-104>119-210100-
SOUTHERN WYOMING

CITY           SKY/WX    TMP DP  RH WIND       PRES   REMARKS
EVANSTON       MOSUNNY   70  42  36 SW14      30.09S
6HR MIN TEMP:  64; 6HR MAX TEMP:  74;

KEMMERER       MOCLDY    70  43  37 CALM      30.10S
FORT BRIDGER   FAIR      72  44  35 CALM      30.12S
ROCK SPRINGS   CLOUDY    59  46  62 NW3       30.12R
6HR MIN TEMP:  58; 6HR MAX TEMP:  70; 6HR PCP: TRACE;

DIXON          CLOUDY    70  52  52 S8        30.10S
RAWLINS        PTSUNNY   62  49  62 W6        30.11R
6HR MIN TEMP:  59; 6HR MAX TEMP:  73; 6HR PCP:  0.01;

SARATOGA       MOCLDY    68  46  45 MISG      30.12R
LARAMIE        PTSUNNY   69  44  40 W13       30.09F
6HR MIN TEMP:  60; 6HR MAX TEMP:  75; 6HR PCP: TRACE;

CHEYENNE       MOSUNNY   73  45  36 W18       30.01R
6HR MIN TEMP:  71; 6HR MAX TEMP:  84; 6HR PCP: TRACE;

TORRINGTON     MOSUNNY   88  47  24 W9G20     29.82S
6HR MIN TEMP:  84; 6HR MAX TEMP:  91;

PINE BLUFFS    LGT RAIN  79  45  29 NW15      29.93R

$$



USA.gov is the U.S. government's official web portal to all federal, state and local government web resources and services.